| time (UTC) | temp C | wind direction | speed KPH | gust KPH | rain 1hr cm | rain 24hr cm | rain mn cm | humidity % | barometer mb |
| 20260508235825 | 27 | 51 | 1.6 | 1.6 | 0.00 | 0.00 | 0.00 | 18 | 1015.2 |
| 20260508235322 | 27 | 45 | 3.2 | 4.8 | 0.00 | 0.00 | 0.00 | 18 | 1015.2 |
| 20260508234820 | 27 | 279 | 4.8 | 6.4 | 0.00 | 0.00 | 0.00 | 17 | 1015.0 |
| 20260508234316 | 27 | 219 | 4.8 | 6.4 | 0.00 | 0.00 | 0.00 | 17 | 1015.2 |
| 20260508233814 | 27 | 3 | 1.6 | 3.2 | 0.00 | 0.00 | 0.00 | 18 | 1015.3 |
| 20260508233313 | 27 | 25 | 3.2 | 3.2 | 0.00 | 0.00 | 0.00 | 18 | 1015.3 |
| 20260508232810 | 27 | 49 | 1.6 | 3.2 | 0.00 | 0.00 | 0.00 | 18 | 1015.3 |
| 20260508232307 | 27 | 72 | 3.2 | 4.8 | 0.00 | 0.00 | 0.00 | 17 | 1015.2 |
| 20260508231805 | 27 | 294 | 3.2 | 4.8 | 0.00 | 0.00 | 0.00 | 18 | 1015.2 |
| 20260508231300 | 27 | 21 | 1.6 | 3.2 | 0.00 | 0.00 | 0.00 | 18 | 1015.3 |
| 20260508230757 | 27 | 51 | 0.0 | 3.2 | 0.00 | 0.00 | 0.00 | 18 | 1015.3 |
| 20260508230254 | 27 | 238 | 3.2 | 3.2 | 0.00 | 0.00 | 0.00 | 17 | 1015.4 |
| 20260508225752 | 27 | 45 | 0.0 | 11.3 | 0.00 | 0.00 | 0.00 | 18 | 1015.5 |
| 20260508225248 | 27 | 44 | 0.0 | 1.6 | 0.00 | 0.00 | 0.00 | 18 | 1015.5 |
| 20260508224746 | 27 | 0 | 1.6 | 11.3 | 0.00 | 0.00 | 0.00 | 19 | 1015.6 |
| 20260508224243 | 27 | 40 | 1.6 | 6.4 | 0.00 | 0.00 | 0.00 | 19 | 1015.7 |
| 20260508223741 | 27 | 44 | 1.6 | 11.3 | 0.00 | 0.00 | 0.00 | 19 | 1015.7 |
| 20260508223238 | 27 | 50 | 0.0 | 3.2 | 0.00 | 0.00 | 0.00 | 18 | 1015.8 |
| 20260508222735 | 26 | 63 | 1.6 | 4.8 | 0.00 | 0.00 | 0.00 | 19 | 1015.7 |
| 20260508222232 | 27 | 99 | 3.2 | 3.2 | 0.00 | 0.00 | 0.00 | 17 | 1016.0 |
| 20260508221729 | 27 | 333 | 1.6 | 4.8 | 0.00 | 0.00 | 0.00 | 18 | 1016.0 |
| 20260508221225 | 27 | 245 | 8.0 | 11.3 | 0.00 | 0.00 | 0.00 | 18 | 1016.1 |
| 20260508220721 | 27 | 74 | 1.6 | 4.8 | 0.00 | 0.00 | 0.00 | 18 | 1016.1 |
| 20260508220218 | 27 | 53 | 1.6 | 9.7 | 0.00 | 0.00 | 0.00 | 19 | 1016.2 |
| 20260508215714 | 27 | 74 | 1.6 | 6.4 | 0.00 | 0.00 | 0.00 | 18 | 1016.2 |
| 20260508215210 | 27 | 85 | 1.6 | 6.4 | 0.00 | 0.00 | 0.00 | 18 | 1016.3 |
| 20260508214708 | 27 | 113 | 3.2 | 6.4 | 0.00 | 0.00 | 0.00 | 18 | 1016.3 |
| 20260508214205 | 27 | 66 | 0.0 | 4.8 | 0.00 | 0.00 | 0.00 | 19 | 1016.4 |
| 20260508213701 | 27 | 45 | 3.2 | 4.8 | 0.00 | 0.00 | 0.00 | 18 | 1016.3 |
| 20260508213158 | 27 | 113 | 3.2 | 4.8 | 0.00 | 0.00 | 0.00 | 19 | 1016.4 |
| 20260508212654 | 26 | 52 | 3.2 | 3.2 | 0.00 | 0.00 | 0.00 | 19 | 1016.6 |
| 20260508212151 | 26 | 311 | 6.4 | 12.9 | 0.00 | 0.00 | 0.00 | 19 | 1016.8 |
| 20260508211651 | 26 | 61 | 3.2 | 4.8 | 0.00 | 0.00 | 0.00 | 19 | 1016.6 |
| 20260508211148 | 26 | 57 | 0.0 | 4.8 | 0.00 | 0.00 | 0.00 | 19 | 1016.6 |
| 20260508210645 | 26 | 54 | 3.2 | 4.8 | 0.00 | 0.00 | 0.00 | 19 | 1016.6 |
| 20260508210143 | 26 | 70 | 3.2 | 3.2 | 0.00 | 0.00 | 0.00 | 19 | 1016.5 |
| 20260508205639 | 26 | 37 | 3.2 | 3.2 | 0.00 | 0.00 | 0.00 | 19 | 1016.9 |
| 20260508205136 | 26 | 32 | 3.2 | 4.8 | 0.00 | 0.00 | 0.00 | 19 | 1016.8 |
| 20260508204632 | 27 | 2 | 4.8 | 9.7 | 0.00 | 0.00 | 0.00 | 19 | 1017.1 |
| 20260508204128 | 26 | 65 | 1.6 | 4.8 | 0.00 | 0.00 | 0.00 | 19 | 1017.1 |
| 20260508203624 | 26 | 177 | 1.6 | 4.8 | 0.00 | 0.00 | 0.00 | 19 | 1017.1 |
| 20260508203120 | 26 | 80 | 1.6 | 3.2 | 0.00 | 0.00 | 0.00 | 20 | 1017.1 |
| 20260508202617 | 26 | 63 | 1.6 | 4.8 | 0.00 | 0.00 | 0.00 | 19 | 1017.1 |
| 20260508202114 | 26 | 337 | 1.6 | 3.2 | 0.00 | 0.00 | 0.00 | 19 | 1017.1 |
| 20260508201611 | 25 | 47 | 3.2 | 6.4 | 0.00 | 0.00 | 0.00 | 19 | 1017.1 |
| 20260508201107 | 26 | 44 | 1.6 | 12.9 | 0.00 | 0.00 | 0.00 | 19 | 1017.2 |
| 20260508200604 | 26 | 60 | 3.2 | 6.4 | 0.00 | 0.00 | 0.00 | 20 | 1017.3 |
| 20260508200100 | 26 | 219 | 1.6 | 9.7 | 0.00 | 0.00 | 0.00 | 20 | 1017.3 |
| 20260508195557 | 26 | 38 | 1.6 | 3.2 | 0.00 | 0.00 | 0.00 | 21 | 1017.3 |
| 20260508195053 | 26 | 95 | 0.0 | 4.8 | 0.00 | 0.00 | 0.00 | 19 | 1017.3 |
| 20260508194550 | 26 | 26 | 3.2 | 6.4 | 0.00 | 0.00 | 0.00 | 20 | 1017.4 |
| 20260508194048 | 26 | 55 | 1.6 | 6.4 | 0.00 | 0.00 | 0.00 | 20 | 1017.4 |
| 20260508193544 | 26 | 69 | 3.2 | 9.7 | 0.00 | 0.00 | 0.00 | 20 | 1017.4 |
| 20260508193041 | 26 | 62 | 1.6 | 3.2 | 0.00 | 0.00 | 0.00 | 21 | 1017.6 |
| 20260508192537 | 26 | 52 | 4.8 | 6.4 | 0.00 | 0.00 | 0.00 | 20 | 1017.6 |
| 20260508192035 | 26 | 108 | 3.2 | 6.4 | 0.00 | 0.00 | 0.00 | 20 | 1017.4 |
| 20260508191531 | 25 | 152 | 3.2 | 4.8 | 0.00 | 0.00 | 0.00 | 20 | 1017.4 |
| 20260508191028 | 25 | 70 | 1.6 | 9.7 | 0.00 | 0.00 | 0.00 | 20 | 1017.7 |
| 20260508190525 | 25 | 34 | 1.6 | 4.8 | 0.00 | 0.00 | 0.00 | 21 | 1017.7 |
| 20260508190021 | 25 | 227 | 6.4 | 9.7 | 0.00 | 0.00 | 0.00 | 20 | 1018.0 |
| 20260508185519 | 26 | 86 | 3.2 | 6.4 | 0.00 | 0.00 | 0.00 | 20 | 1017.9 |
| 20260508185016 | 26 | 43 | 4.8 | 6.4 | 0.00 | 0.00 | 0.00 | 20 | 1018.1 |
| 20260508184514 | 26 | 77 | 1.6 | 4.8 | 0.00 | 0.00 | 0.00 | 21 | 1017.9 |
| 20260508184010 | 26 | 273 | 6.4 | 9.7 | 0.00 | 0.00 | 0.00 | 21 | 1018.1 |
| 20260508183507 | 26 | 295 | 3.2 | 4.8 | 0.00 | 0.00 | 0.00 | 21 | 1018.1 |
| 20260508183002 | 25 | 51 | 1.6 | 4.8 | 0.00 | 0.00 | 0.00 | 22 | 1017.9 |
| 20260508182459 | 25 | 253 | 1.6 | 4.8 | 0.00 | 0.00 | 0.00 | 22 | 1017.9 |
| 20260508181955 | 25 | 142 | 6.4 | 9.7 | 0.00 | 0.00 | 0.00 | 21 | 1017.8 |
| 20260508181451 | 25 | 329 | 6.4 | 9.7 | 0.00 | 0.00 | 0.00 | 21 | 1017.7 |
| 20260508180949 | 25 | 298 | 3.2 | 4.8 | 0.00 | 0.00 | 0.00 | 21 | 1017.9 |
| 20260508180446 | 26 | 290 | 3.2 | 9.7 | 0.00 | 0.00 | 0.00 | 21 | 1017.9 |
| 20260508175942 | 26 | 17 | 3.2 | 4.8 | 0.00 | 0.00 | 0.00 | 21 | 1017.9 |
| 20260508175438 | 25 | 119 | 1.6 | 4.8 | 0.00 | 0.00 | 0.00 | 23 | 1018.0 |
| 20260508174936 | 25 | 85 | 1.6 | 3.2 | 0.00 | 0.00 | 0.00 | 23 | 1018.1 |
| 20260508174434 | 25 | 69 | 1.6 | 6.4 | 0.00 | 0.00 | 0.00 | 22 | 1018.0 |
| 20260508173930 | 24 | 300 | 1.6 | 4.8 | 0.00 | 0.00 | 0.00 | 23 | 1017.9 |
| 20260508173427 | 24 | 73 | 1.6 | 11.3 | 0.00 | 0.00 | 0.00 | 23 | 1018.1 |
| 20260508172923 | 24 | 61 | 4.8 | 9.7 | 0.00 | 0.00 | 0.00 | 25 | 1018.0 |
| 20260508172421 | 25 | 285 | 3.2 | 4.8 | 0.00 | 0.00 | 0.00 | 24 | 1018.2 |
| 20260508171917 | 25 | 72 | 0.0 | 1.6 | 0.00 | 0.00 | 0.00 | 26 | 1018.1 |
| 20260508171413 | 25 | 66 | 1.6 | 4.8 | 0.00 | 0.00 | 0.00 | 26 | 1018.0 |
| 20260508170910 | 24 | 46 | 0.0 | 1.6 | 0.00 | 0.00 | 0.00 | 26 | 1017.9 |
| 20260508170408 | 25 | 308 | 3.2 | 9.7 | 0.00 | 0.00 | 0.00 | 25 | 1018.1 |
| 20260508165904 | 24 | 120 | 1.6 | 1.6 | 0.00 | 0.00 | 0.00 | 26 | 1018.1 |
| 20260508165402 | 24 | 84 | 6.4 | 9.7 | 0.00 | 0.00 | 0.00 | 27 | 1018.0 |
| 20260508164857 | 23 | 89 | 1.6 | 4.8 | 0.00 | 0.00 | 0.00 | 29 | 1018.0 |
| 20260508164355 | 23 | 49 | 0.0 | 9.7 | 0.00 | 0.00 | 0.00 | 30 | 1018.1 |
| 20260508163852 | 23 | 75 | 1.6 | 3.2 | 0.00 | 0.00 | 0.00 | 28 | 1018.0 |
| 20260508163350 | 24 | 126 | 1.6 | 3.2 | 0.00 | 0.00 | 0.00 | 28 | 1017.9 |
| 20260508162845 | 24 | 66 | 0.0 | 6.4 | 0.00 | 0.00 | 0.00 | 27 | 1017.9 |
| 20260508162342 | 23 | 58 | 0.0 | 1.6 | 0.00 | 0.00 | 0.00 | 28 | 1017.9 |
| 20260508161839 | 23 | 70 | 0.0 | 0.0 | 0.00 | 0.00 | 0.00 | 29 | 1017.8 |
| 20260508161337 | 23 | 65 | 0.0 | 1.6 | 0.00 | 0.00 | 0.00 | 30 | 1017.8 |
| 20260508160834 | 23 | 61 | 6.4 | 11.3 | 0.00 | 0.00 | 0.00 | 29 | 1017.7 |
| 20260508160333 | 23 | 41 | 3.2 | 4.8 | 0.00 | 0.00 | 0.00 | 30 | 1017.9 |
| 20260508155829 | 23 | 55 | 1.6 | 1.6 | 0.00 | 0.00 | 0.00 | 30 | 1017.8 |
| 20260508155326 | 22 | 72 | 0.0 | 3.2 | 0.00 | 0.00 | 0.00 | 30 | 1017.7 |
| 20260508154822 | 22 | 61 | 3.2 | 3.2 | 0.00 | 0.00 | 0.00 | 31 | 1017.9 |
| 20260508154321 | 22 | 50 | 0.0 | 1.6 | 0.00 | 0.00 | 0.00 | 33 | 1017.6 |
| 20260508153816 | 22 | 62 | 0.0 | 1.6 | 0.00 | 0.00 | 0.00 | 31 | 1017.8 |
| 20260508153314 | 22 | 61 | 0.0 | 3.2 | 0.00 | 0.00 | 0.00 | 31 | 1017.8 |
| 20260508152810 | 22 | 68 | 1.6 | 3.2 | 0.00 | 0.00 | 0.00 | 31 | 1017.6 |
| 20260508152306 | 21 | 66 | 0.0 | 0.0 | 0.00 | 0.00 | 0.00 | 33 | 1017.7 |
| 20260508151802 | 21 | 31 | 0.0 | 1.6 | 0.00 | 0.00 | 0.00 | 35 | 1017.4 |
| 20260508151259 | 20 | 66 | 0.0 | 0.0 | 0.00 | 0.00 | 0.00 | 35 | 1017.6 |
| 20260508150756 | 20 | 58 | 1.6 | 3.2 | 0.00 | 0.00 | 0.00 | 35 | 1017.6 |
| 20260508150253 | 20 | 87 | 0.0 | 1.6 | 0.00 | 0.00 | 0.00 | 35 | 1017.6 |
| 20260508145749 | 20 | 84 | 0.0 | 3.2 | 0.00 | 0.00 | 0.00 | 36 | 1017.4 |
| 20260508145245 | 20 | 73 | 0.0 | 1.6 | 0.00 | 0.00 | 0.00 | 36 | 1017.4 |
| 20260508144742 | 19 | 66 | 0.0 | 1.6 | 0.00 | 0.00 | 0.00 | 37 | 1017.3 |
| 20260508144240 | 18 | 79 | 1.6 | 1.6 | 0.00 | 0.00 | 0.00 | 37 | 1017.3 |
| 20260508143737 | 18 | 63 | 0.0 | 1.6 | 0.00 | 0.00 | 0.00 | 37 | 1017.3 |
| 20260508143234 | 18 | 66 | 0.0 | 1.6 | 0.00 | 0.00 | 0.00 | 38 | 1017.3 |
| 20260508142730 | 18 | 65 | 0.0 | 1.6 | 0.00 | 0.00 | 0.00 | 39 | 1017.4 |
| 20260508142228 | 17 | 65 | 0.0 | 1.6 | 0.00 | 0.00 | 0.00 | 40 | 1017.4 |
| 20260508141724 | 17 | 65 | 0.0 | 0.0 | 0.00 | 0.00 | 0.00 | 42 | 1017.4 |
| 20260508141222 | 16 | 65 | 0.0 | 1.6 | 0.00 | 0.00 | 0.00 | 43 | 1017.2 |
| 20260508140719 | 16 | 59 | 0.0 | 3.2 | 0.00 | 0.00 | 0.00 | 43 | 1017.2 |
| 20260508140215 | 17 | 0 | 1.6 | 1.6 | 0.00 | 0.00 | 0.00 | 42 | 1017.1 |
| 20260508135712 | 17 | 0 | 0.0 | 0.0 | 0.00 | 0.00 | 0.00 | 42 | 1017.2 |
| 20260508135207 | 16 | 359 | 0.0 | 0.0 | 0.00 | 0.00 | 0.00 | 42 | 1016.9 |
| 20260508134703 | 15 | 359 | 0.0 | 0.0 | 0.00 | 0.00 | 0.00 | 44 | 1017.1 |
| 20260508134201 | 15 | 359 | 0.0 | 0.0 | 0.00 | 0.00 | 0.00 | 46 | 1017.1 |
| 20260508133658 | 14 | 359 | 0.0 | 0.0 | 0.00 | 0.00 | 0.00 | 48 | 1016.9 |
| 20260508133155 | 13 | 359 | 0.0 | 0.0 | 0.00 | 0.00 | 0.00 | 51 | 1017.0 |
| 20260508132653 | 12 | 359 | 0.0 | 0.0 | 0.00 | 0.00 | 0.00 | 56 | 1017.0 |
| 20260508132149 | 11 | 359 | 0.0 | 0.0 | 0.00 | 0.00 | 0.00 | 55 | 1016.9 |
| 20260508131645 | 11 | 359 | 0.0 | 1.6 | 0.00 | 0.00 | 0.00 | 56 | 1016.8 |
| 20260508131142 | 11 | 359 | 0.0 | 0.0 | 0.00 | 0.00 | 0.00 | 58 | 1016.9 |
| 20260508130638 | 10 | 359 | 0.0 | 0.0 | 0.00 | 0.00 | 0.00 | 60 | 1016.8 |
| 20260508130136 | 10 | 359 | 1.6 | 1.6 | 0.00 | 0.00 | 0.00 | 60 | 1016.5 |
| 20260508125631 | 10 | 1 | 0.0 | 0.0 | 0.00 | 0.00 | 0.00 | 59 | 1016.8 |
| 20260508125128 | 10 | 1 | 0.0 | 0.0 | 0.00 | 0.00 | 0.00 | 59 | 1016.8 |
| 20260508124626 | 10 | 0 | 0.0 | 1.6 | 0.00 | 0.00 | 0.00 | 60 | 1016.4 |
| 20260508124123 | 9 | 1 | 0.0 | 0.0 | 0.00 | 0.00 | 0.00 | 60 | 1016.6 |
| 20260508123621 | 10 | 1 | 0.0 | 0.0 | 0.00 | 0.00 | 0.00 | 59 | 1016.3 |
| 20260508123119 | 10 | 1 | 0.0 | 1.6 | 0.00 | 0.00 | 0.00 | 59 | 1016.2 |
| 20260508122615 | 10 | 352 | 1.6 | 3.2 | 0.00 | 0.00 | 0.00 | 59 | 1016.3 |
| 20260508122112 | 10 | 352 | 0.0 | 0.0 | 0.00 | 0.00 | 0.00 | 58 | 1016.3 |
| 20260508121610 | 10 | 352 | 0.0 | 0.0 | 0.00 | 0.00 | 0.00 | 57 | 1016.2 |
| 20260508121108 | 10 | 352 | 0.0 | 0.0 | 0.00 | 0.00 | 0.00 | 56 | 1016.1 |
| 20260508120605 | 10 | 349 | 0.0 | 3.2 | 0.00 | 0.00 | 0.00 | 56 | 1016.2 |
| 20260508120103 | 10 | 302 | 3.2 | 3.2 | 0.00 | 0.00 | 0.00 | 56 | 1016.2 |
| 20260508115600 | 10 | 327 | 1.6 | 3.2 | 0.00 | 0.00 | 0.00 | 56 | 1016.2 |
| 20260508115057 | 10 | 3 | 1.6 | 1.6 | 0.00 | 0.00 | 0.00 | 57 | 1015.8 |
| 20260508114554 | 10 | 4 | 0.0 | 0.0 | 0.00 | 0.00 | 0.00 | 56 | 1016.0 |
| 20260508114050 | 10 | 4 | 0.0 | 1.6 | 0.00 | 0.00 | 0.00 | 55 | 1016.2 |
| 20260508113548 | 10 | 3 | 1.6 | 1.6 | 0.00 | 0.00 | 0.00 | 56 | 1016.1 |
| 20260508113046 | 10 | 359 | 1.6 | 1.6 | 0.00 | 0.00 | 0.00 | 56 | 1016.1 |
| 20260508112542 | 10 | 14 | 0.0 | 1.6 | 0.00 | 0.00 | 0.00 | 56 | 1016.2 |
| 20260508112039 | 10 | 14 | 0.0 | 1.6 | 0.00 | 0.00 | 0.00 | 56 | 1016.2 |
| 20260508111536 | 10 | 15 | 0.0 | 1.6 | 0.00 | 0.00 | 0.00 | 58 | 1016.1 |
| 20260508111032 | 10 | 21 | 0.0 | 0.0 | 0.00 | 0.00 | 0.00 | 58 | 1015.8 |
| 20260508110531 | 10 | 21 | 0.0 | 1.6 | 0.00 | 0.00 | 0.00 | 58 | 1016.0 |
| 20260508110026 | 10 | 21 | 0.0 | 1.6 | 0.00 | 0.00 | 0.00 | 58 | 1016.0 |
| 20260508105521 | 10 | 22 | 0.0 | 0.0 | 0.00 | 0.00 | 0.00 | 58 | 1015.8 |
| 20260508105019 | 10 | 22 | 0.0 | 0.0 | 0.00 | 0.00 | 0.00 | 57 | 1016.0 |
| 20260508104517 | 10 | 22 | 0.0 | 0.0 | 0.00 | 0.00 | 0.00 | 55 | 1015.8 |
| 20260508104013 | 10 | 9 | 0.0 | 0.0 | 0.00 | 0.00 | 0.00 | 54 | 1015.5 |
| 20260508103510 | 11 | 4 | 1.6 | 1.6 | 0.00 | 0.00 | 0.00 | 54 | 1015.6 |
| 20260508103007 | 10 | 341 | 1.6 | 3.2 | 0.00 | 0.00 | 0.00 | 54 | 1015.7 |
| 20260508102505 | 10 | 13 | 1.6 | 1.6 | 0.00 | 0.00 | 0.00 | 55 | 1016.0 |
| 20260508102002 | 10 | 14 | 0.0 | 0.0 | 0.00 | 0.00 | 0.00 | 55 | 1015.7 |
| 20260508101459 | 11 | 14 | 0.0 | 1.6 | 0.00 | 0.00 | 0.00 | 54 | 1015.7 |
| 20260508100956 | 10 | 14 | 0.0 | 1.6 | 0.00 | 0.00 | 0.00 | 55 | 1015.5 |
| 20260508100455 | 10 | 341 | 1.6 | 1.6 | 0.00 | 0.00 | 0.00 | 56 | 1015.7 |
| 20260508095951 | 10 | 23 | 0.0 | 1.6 | 0.00 | 0.00 | 0.00 | 60 | 1015.6 |
| 20260508095449 | 10 | 25 | 0.0 | 0.0 | 0.00 | 0.00 | 0.00 | 59 | 1015.5 |
| 20260508094945 | 10 | 25 | 0.0 | 0.0 | 0.00 | 0.00 | 0.00 | 58 | 1015.6 |
| 20260508094442 | 10 | 25 | 0.0 | 0.0 | 0.00 | 0.00 | 0.00 | 58 | 1015.6 |
| 20260508093939 | 10 | 25 | 0.0 | 0.0 | 0.00 | 0.00 | 0.00 | 56 | 1015.5 |
| 20260508093436 | 10 | 25 | 0.0 | 0.0 | 0.00 | 0.00 | 0.00 | 55 | 1015.6 |
| 20260508092934 | 11 | 25 | 0.0 | 0.0 | 0.00 | 0.00 | 0.00 | 54 | 1015.7 |
| 20260508092432 | 11 | 25 | 0.0 | 0.0 | 0.00 | 0.00 | 0.00 | 54 | 1015.5 |
| 20260508091930 | 11 | 25 | 0.0 | 0.0 | 0.00 | 0.00 | 0.00 | 54 | 1015.4 |
| 20260508091426 | 11 | 24 | 0.0 | 0.0 | 0.00 | 0.00 | 0.00 | 55 | 1015.6 |
| 20260508090923 | 11 | 27 | 0.0 | 0.0 | 0.00 | 0.00 | 0.00 | 56 | 1015.4 |
| 20260508090422 | 11 | 27 | 0.0 | 0.0 | 0.00 | 0.00 | 0.00 | 55 | 1015.4 |
| 20260508085917 | 11 | 27 | 0.0 | 0.0 | 0.00 | 0.00 | 0.00 | 56 | 1015.7 |
| 20260508085414 | 11 | 28 | 0.0 | 0.0 | 0.00 | 0.00 | 0.00 | 55 | 1015.6 |
| 20260508084911 | 11 | 28 | 0.0 | 1.6 | 0.00 | 0.00 | 0.00 | 55 | 1015.4 |
| 20260508084408 | 10 | 28 | 0.0 | 1.6 | 0.00 | 0.00 | 0.00 | 55 | 1015.6 |
| 20260508083906 | 11 | 31 | 0.0 | 0.0 | 0.00 | 0.00 | 0.00 | 54 | 1015.4 |
| 20260508083403 | 11 | 30 | 0.0 | 0.0 | 0.00 | 0.00 | 0.00 | 54 | 1015.6 |
| 20260508082902 | 11 | 41 | 0.0 | 0.0 | 0.00 | 0.00 | 0.00 | 53 | 1015.6 |
| 20260508082400 | 11 | 42 | 0.0 | 0.0 | 0.00 | 0.00 | 0.00 | 52 | 1015.5 |
| 20260508081858 | 12 | 36 | 0.0 | 0.0 | 0.00 | 0.00 | 0.00 | 49 | 1015.5 |
| 20260508081354 | 12 | 36 | 0.0 | 0.0 | 0.00 | 0.00 | 0.00 | 49 | 1015.6 |
| 20260508080851 | 12 | 23 | 0.0 | 0.0 | 0.00 | 0.00 | 0.00 | 48 | 1015.5 |
| 20260508080349 | 12 | 25 | 0.0 | 1.6 | 0.00 | 0.00 | 0.00 | 48 | 1015.5 |
| 20260508075845 | 12 | 355 | 1.6 | 1.6 | 0.00 | 0.00 | 0.00 | 47 | 1015.3 |
| 20260508075342 | 12 | 355 | 1.6 | 1.6 | 0.00 | 0.00 | 0.00 | 47 | 1015.4 |
| 20260508074840 | 13 | 351 | 1.6 | 1.6 | 0.00 | 0.00 | 0.00 | 47 | 1015.4 |
| 20260508074337 | 13 | 8 | 0.0 | 1.6 | 0.00 | 0.00 | 0.00 | 45 | 1015.4 |
| 20260508073834 | 13 | 285 | 1.6 | 3.2 | 0.00 | 0.00 | 0.00 | 46 | 1015.5 |
| 20260508073332 | 13 | 2 | 0.0 | 1.6 | 0.00 | 0.00 | 0.00 | 46 | 1015.5 |
| 20260508072828 | 12 | 356 | 1.6 | 1.6 | 0.00 | 0.00 | 0.00 | 48 | 1015.4 |
| 20260508072325 | 12 | 357 | 1.6 | 1.6 | 0.00 | 0.00 | 0.00 | 50 | 1015.3 |
| 20260508071822 | 13 | 30 | 1.6 | 1.6 | 0.00 | 0.00 | 0.00 | 49 | 1015.5 |
| 20260508071320 | 13 | 33 | 0.0 | 0.0 | 0.00 | 0.00 | 0.00 | 46 | 1015.3 |
| 20260508070817 | 13 | 74 | 0.0 | 0.0 | 0.00 | 0.00 | 0.00 | 47 | 1015.3 |
| 20260508070316 | 13 | 321 | 3.2 | 3.2 | 0.00 | 0.00 | 0.00 | 47 | 1015.2 |
| 20260508065813 | 13 | 2 | 0.0 | 0.0 | 0.00 | 0.00 | 0.00 | 45 | 1015.2 |
| 20260508065311 | 13 | 351 | 0.0 | 1.6 | 0.00 | 0.00 | 0.00 | 44 | 1015.3 |
| 20260508064809 | 13 | 350 | 1.6 | 1.6 | 0.00 | 0.00 | 0.00 | 44 | 1015.2 |
| 20260508064306 | 13 | 359 | 1.6 | 1.6 | 0.00 | 0.00 | 0.00 | 46 | 1015.2 |
| 20260508063803 | 13 | 292 | 3.2 | 4.8 | 0.00 | 0.00 | 0.00 | 47 | 1015.2 |
| 20260508063301 | 13 | 6 | 0.0 | 1.6 | 0.00 | 0.00 | 0.00 | 49 | 1015.0 |
| 20260508062758 | 13 | 6 | 0.0 | 1.6 | 0.00 | 0.00 | 0.00 | 47 | 1015.3 |
| 20260508062256 | 13 | 6 | 0.0 | 0.0 | 0.00 | 0.00 | 0.00 | 45 | 1015.3 |
| 20260508061752 | 13 | 6 | 0.0 | 1.6 | 0.00 | 0.00 | 0.00 | 45 | 1015.3 |
| 20260508061249 | 13 | 6 | 1.6 | 1.6 | 0.00 | 0.00 | 0.00 | 45 | 1015.0 |
| 20260508060746 | 13 | 14 | 0.0 | 1.6 | 0.00 | 0.00 | 0.00 | 47 | 1014.9 |
| 20260508060244 | 13 | 3 | 1.6 | 1.6 | 0.00 | 0.00 | 0.00 | 46 | 1015.3 |
| 20260508055739 | 13 | 14 | 0.0 | 1.6 | 0.00 | 0.00 | 0.00 | 46 | 1015.0 |
| 20260508055237 | 13 | 31 | 0.0 | 0.0 | 0.00 | 0.00 | 0.00 | 47 | 1014.9 |
| 20260508054733 | 13 | 31 | 0.0 | 0.0 | 0.00 | 0.00 | 0.00 | 46 | 1015.2 |
| 20260508054231 | 13 | 30 | 0.0 | 0.0 | 0.00 | 0.00 | 0.00 | 46 | 1015.0 |
| 20260508053728 | 13 | 57 | 0.0 | 0.0 | 0.00 | 0.00 | 0.00 | 45 | 1014.9 |
| 20260508053225 | 14 | 57 | 0.0 | 0.0 | 0.00 | 0.00 | 0.00 | 44 | 1014.8 |
| 20260508052722 | 14 | 57 | 0.0 | 0.0 | 0.00 | 0.00 | 0.00 | 43 | 1014.8 |
| 20260508052219 | 14 | 58 | 0.0 | 0.0 | 0.00 | 0.00 | 0.00 | 42 | 1014.7 |
| 20260508051715 | 15 | 58 | 0.0 | 0.0 | 0.00 | 0.00 | 0.00 | 42 | 1014.8 |
| 20260508051211 | 15 | 41 | 0.0 | 1.6 | 0.00 | 0.00 | 0.00 | 40 | 1014.6 |
| 20260508050708 | 16 | 17 | 0.0 | 1.6 | 0.00 | 0.00 | 0.00 | 39 | 1014.8 |
| 20260508050206 | 16 | 279 | 3.2 | 3.2 | 0.00 | 0.00 | 0.00 | 38 | 1014.7 |
| 20260508045705 | 16 | 307 | 1.6 | 3.2 | 0.00 | 0.00 | 0.00 | 39 | 1014.7 |
| 20260508045204 | 16 | 338 | 1.6 | 1.6 | 0.00 | 0.00 | 0.00 | 39 | 1014.7 |
| 20260508044701 | 16 | 334 | 1.6 | 1.6 | 0.00 | 0.00 | 0.00 | 38 | 1014.6 |
| 20260508044157 | 16 | 292 | 3.2 | 4.8 | 0.00 | 0.00 | 0.00 | 37 | 1014.8 |
| 20260508043653 | 16 | 293 | 3.2 | 4.8 | 0.00 | 0.00 | 0.00 | 36 | 1014.7 |
| 20260508043152 | 16 | 308 | 1.6 | 1.6 | 0.00 | 0.00 | 0.00 | 36 | 1014.7 |
| 20260508042648 | 16 | 249 | 3.2 | 3.2 | 0.00 | 0.00 | 0.00 | 36 | 1014.6 |
| 20260508042145 | 16 | 237 | 3.2 | 4.8 | 0.00 | 0.00 | 0.00 | 36 | 1014.7 |
| 20260508041642 | 16 | 283 | 1.6 | 4.8 | 0.00 | 0.00 | 0.00 | 37 | 1014.8 |
| 20260508041138 | 16 | 317 | 1.6 | 3.2 | 0.00 | 0.00 | 0.00 | 37 | 1014.6 |
| 20260508040635 | 16 | 283 | 3.2 | 4.8 | 0.00 | 0.00 | 0.00 | 37 | 1014.6 |
| 20260508040133 | 16 | 263 | 3.2 | 4.8 | 0.00 | 0.00 | 0.00 | 38 | 1014.5 |
| 20260508035629 | 16 | 282 | 3.2 | 4.8 | 0.00 | 0.00 | 0.00 | 38 | 1014.5 |
| 20260508035127 | 16 | 261 | 3.2 | 4.8 | 0.00 | 0.00 | 0.00 | 38 | 1014.4 |
| 20260508034624 | 17 | 296 | 3.2 | 4.8 | 0.00 | 0.00 | 0.00 | 38 | 1014.4 |
| 20260508034121 | 17 | 258 | 3.2 | 3.2 | 0.00 | 0.00 | 0.00 | 38 | 1014.6 |
| 20260508033618 | 17 | 259 | 3.2 | 3.2 | 0.00 | 0.00 | 0.00 | 37 | 1014.4 |
| 20260508033116 | 17 | 3 | 1.6 | 1.6 | 0.00 | 0.00 | 0.00 | 36 | 1014.4 |
| 20260508032612 | 17 | 51 | 0.0 | 1.6 | 0.00 | 0.00 | 0.00 | 35 | 1014.2 |
| 20260508032110 | 17 | 352 | 1.6 | 1.6 | 0.00 | 0.00 | 0.00 | 35 | 1014.5 |
| 20260508031607 | 18 | 353 | 1.6 | 1.6 | 0.00 | 0.00 | 0.00 | 34 | 1014.2 |
| 20260508031103 | 18 | 359 | 1.6 | 1.6 | 0.00 | 0.00 | 0.00 | 33 | 1014.1 |
| 20260508030559 | 18 | 6 | 1.6 | 1.6 | 0.00 | 0.00 | 0.00 | 33 | 1014.0 |
| 20260508030058 | 18 | 26 | 0.0 | 0.0 | 0.00 | 0.00 | 0.00 | 35 | 1014.1 |
| 20260508025553 | 18 | 28 | 0.0 | 0.0 | 0.00 | 0.00 | 0.00 | 35 | 1014.1 |
| 20260508025051 | 18 | 28 | 0.0 | 0.0 | 0.00 | 0.00 | 0.00 | 34 | 1014.1 |
| 20260508024546 | 18 | 42 | 0.0 | 0.0 | 0.00 | 0.00 | 0.00 | 33 | 1014.0 |
| 20260508024044 | 19 | 42 | 0.0 | 0.0 | 0.00 | 0.00 | 0.00 | 33 | 1014.1 |
| 20260508023540 | 20 | 42 | 0.0 | 0.0 | 0.00 | 0.00 | 0.00 | 32 | 1014.1 |
| 20260508023038 | 20 | 42 | 0.0 | 0.0 | 0.00 | 0.00 | 0.00 | 30 | 1014.1 |
| 20260508022533 | 20 | 42 | 0.0 | 0.0 | 0.00 | 0.00 | 0.00 | 29 | 1014.0 |
| 20260508022030 | 20 | 42 | 0.0 | 0.0 | 0.00 | 0.00 | 0.00 | 28 | 1014.1 |
| 20260508021526 | 21 | 42 | 0.0 | 0.0 | 0.00 | 0.00 | 0.00 | 28 | 1014.1 |
| 20260508021022 | 21 | 42 | 0.0 | 0.0 | 0.00 | 0.00 | 0.00 | 27 | 1013.9 |
| 20260508020520 | 22 | 61 | 0.0 | 0.0 | 0.00 | 0.00 | 0.00 | 26 | 1014.1 |
| 20260508020018 | 22 | 62 | 0.0 | 0.0 | 0.00 | 0.00 | 0.00 | 25 | 1013.7 |
| 20260508015515 | 22 | 51 | 0.0 | 1.6 | 0.00 | 0.00 | 0.00 | 24 | 1013.9 |
| 20260508015012 | 23 | 62 | 0.0 | 0.0 | 0.00 | 0.00 | 0.00 | 24 | 1013.9 |
| 20260508014508 | 23 | 68 | 3.2 | 3.2 | 0.00 | 0.00 | 0.00 | 23 | 1013.8 |
| 20260508014004 | 24 | 71 | 0.0 | 1.6 | 0.00 | 0.00 | 0.00 | 23 | 1013.8 |
| 20260508013500 | 24 | 63 | 3.2 | 3.2 | 0.00 | 0.00 | 0.00 | 23 | 1013.7 |
| 20260508012958 | 24 | 67 | 0.0 | 1.6 | 0.00 | 0.00 | 0.00 | 23 | 1013.8 |
| 20260508012455 | 24 | 65 | 0.0 | 1.6 | 0.00 | 0.00 | 0.00 | 23 | 1014.0 |
| 20260508011952 | 24 | 63 | 1.6 | 3.2 | 0.00 | 0.00 | 0.00 | 23 | 1013.9 |
| 20260508011450 | 24 | 74 | 0.0 | 3.2 | 0.00 | 0.00 | 0.00 | 22 | 1013.9 |
| 20260508010947 | 24 | 83 | 1.6 | 1.6 | 0.00 | 0.00 | 0.00 | 23 | 1014.0 |
| 20260508010444 | 24 | 61 | 4.8 | 4.8 | 0.00 | 0.00 | 0.00 | 22 | 1013.8 |
| 20260508005942 | 25 | 49 | 0.0 | 1.6 | 0.00 | 0.00 | 0.00 | 22 | 1013.7 |
| 20260508005438 | 24 | 58 | 1.6 | 4.8 | 0.00 | 0.00 | 0.00 | 22 | 1014.0 |
| 20260508004935 | 23 | 58 | 3.2 | 4.8 | 0.00 | 0.00 | 0.00 | 23 | 1014.0 |
| 20260508004431 | 23 | 48 | 1.6 | 1.6 | 0.00 | 0.00 | 0.00 | 23 | 1014.5 |
| 20260508003927 | 23 | 69 | 3.2 | 6.4 | 0.00 | 0.00 | 0.00 | 23 | 1014.1 |
| 20260508003424 | 23 | 54 | 0.0 | 1.6 | 0.00 | 0.00 | 0.00 | 23 | 1014.2 |
| 20260508002922 | 23 | 52 | 1.6 | 3.2 | 0.00 | 0.00 | 0.00 | 23 | 1014.1 |
| 20260508002418 | 23 | 69 | 0.0 | 3.2 | 0.00 | 0.00 | 0.00 | 23 | 1014.2 |
| 20260508001914 | 23 | 69 | 0.0 | 3.2 | 0.00 | 0.00 | 0.00 | 23 | 1014.1 |
| 20260508001410 | 23 | 63 | 3.2 | 6.4 | 0.00 | 0.00 | 0.00 | 23 | 1014.4 |
| 20260508000907 | 23 | 177 | 3.2 | 4.8 | 0.00 | 0.00 | 0.00 | 22 | 1014.1 |
| 20260508000405 | 23 | 96 | 1.6 | 3.2 | 0.00 | 0.00 | 0.00 | 22 | 1014.4 |